Date String (YYYY-MM-DD hh:mm:ss) UTC,Instrument flags,absolute air pressure of the measurement (hPa),sample flow rate (lpm),inlet stack bypass flow (lpm),air temperature of the measurement (°C),ambient temperature measured by the external sensor (°C),aerosol sample conditioner tube jacket temperature (°C),OPC LED temperature (°C),internal box temperature (°C),relative humidity of the measurement (%),span deviation,mass concentration of particles derived from Lorenz-Mie calculation of OPC scattering (μg/m³),mass concentration of particles derived from Lorenz-Mie calculation of OPC scattering (μg/m³),mass concentration of particles derived from Lorenz-Mie calculation of OPC scattering (μg/m³)
DateTimeUTC,F1_M11,P_M11,Q1_M11,Q2_M11,T1_M11,T2_M11,T3_M11,T4_M11,T5_M11,U1_M11,ZSPAN_M11,X0_M11,X2_M11,X1_M11
2024-02-17 02:00:00,SystemResetWarning,0833.8,4.99,000.00,018.6,018.2,000.0,027.1,020.1,13.1,0000.0,0006.40,0003.58,0003.44
2024-02-17 02:01:00,SystemResetWarning,0833.8,4.99,000.00,018.5,018.1,000.0,027.0,020.0,13.1,0000.0,0006.37,0003.57,0003.44
2024-02-17 02:02:00,SystemResetWarning,0833.8,5.01,000.00,018.5,017.9,000.0,027.1,020.0,13.1,0000.0,0006.40,0003.59,0003.45
2024-02-17 02:03:00,SystemResetWarning,0833.8,5.01,000.00,018.5,017.8,000.0,027.1,020.0,13.1,0000.0,0006.38,0003.59,0003.46
2024-02-17 02:04:00,SystemResetWarning,0833.8,5.00,000.00,018.4,017.8,000.0,027.1,020.0,13.1,0000.0,0006.29,0003.58,0003.45
2024-02-17 02:05:00,SystemResetWarning,0833.8,4.99,000.00,018.4,017.8,000.0,027.1,020.1,13.1,0000.0,0004.55,0003.58,0003.45
2024-02-17 02:06:00,SystemResetWarning,0833.9,5.01,000.00,018.6,018.5,000.0,027.2,020.6,13.0,0000.0,0004.67,0003.60,0003.45
2024-02-17 02:07:00,SystemResetWarning,0833.9,5.00,000.00,018.8,019.2,000.0,027.3,021.0,12.8,0000.0,0004.60,0003.60,0003.45
2024-02-17 02:08:00,SystemResetWarning,0834.0,4.98,000.00,018.9,019.1,000.0,027.2,020.9,12.7,0000.0,0004.63,0003.61,0003.46
2024-02-17 02:09:00,SystemResetWarning,0833.9,5.01,000.00,018.8,018.9,000.0,027.2,020.7,12.7,0000.0,0004.65,0003.61,0003.45
2024-02-17 02:10:00,SystemResetWarning,0834.0,5.01,000.00,018.8,018.7,000.0,027.1,020.5,12.7,0000.0,0004.62,0003.61,0003.44
2024-02-17 02:11:00,SystemResetWarning,0834.0,5.00,000.00,018.7,018.5,000.0,027.1,020.3,12.7,0000.0,0004.57,0003.59,0003.43
2024-02-17 02:12:00,SystemResetWarning,0834.0,5.00,000.00,018.7,018.3,000.0,027.1,020.2,12.7,0000.0,0004.55,0003.58,0003.42
2024-02-17 02:13:00,SystemResetWarning,0833.9,5.00,000.00,018.6,018.2,000.0,027.1,020.1,12.8,0000.0,0004.56,0003.57,0003.40
2024-02-17 02:14:00,SystemResetWarning,0833.9,5.00,000.00,018.5,018.0,000.0,027.0,020.0,12.8,0000.0,0004.49,0003.54,0003.38
2024-02-17 02:15:00,SystemResetWarning,0834.0,5.00,000.00,018.5,017.9,000.0,027.1,020.0,12.8,0000.0,0004.41,0003.52,0003.37
2024-02-17 02:16:00,SystemResetWarning,0834.0,4.99,000.00,018.5,017.8,000.0,027.1,020.0,12.8,0000.0,0004.36,0003.51,0003.37
2024-02-17 02:17:00,SystemResetWarning,0834.0,5.01,000.00,018.4,017.7,000.0,027.1,020.0,12.7,0000.0,0004.24,0003.48,0003.36
2024-02-17 02:18:00,SystemResetWarning,0833.9,5.01,000.00,018.4,017.7,000.0,027.1,020.0,12.7,0000.0,0004.25,0003.46,0003.33
2024-02-17 02:19:00,SystemResetWarning,0833.9,5.00,000.00,018.4,017.6,000.0,027.1,020.0,12.7,0000.0,0004.38,0003.46,0003.30
2024-02-17 02:20:00,SystemResetWarning,0834.0,5.01,000.00,018.4,017.7,000.0,027.1,020.1,12.7,0000.0,0004.32,0003.43,0003.27
2024-02-17 02:21:00,SystemResetWarning,0834.0,5.00,000.00,018.5,018.5,000.0,027.2,020.6,12.6,0000.0,0004.29,0003.41,0003.25
2024-02-17 02:22:00,SystemResetWarning,0834.1,4.99,000.00,018.8,019.1,000.0,027.2,020.9,12.4,0000.0,0004.28,0003.38,0003.22
2024-02-17 02:23:00,SystemResetWarning,0834.1,4.99,000.00,018.8,019.0,000.0,027.2,020.8,12.4,0000.0,0004.29,0003.37,0003.19
2024-02-17 02:24:00,SystemResetWarning,0834.1,5.00,000.00,018.7,018.8,000.0,027.1,020.5,12.4,0000.0,0004.20,0003.33,0003.18
2024-02-17 02:25:00,SystemResetWarning,0834.1,5.00,000.00,018.7,018.6,000.0,027.1,020.4,12.4,0000.0,0004.16,0003.32,0003.16
2024-02-17 02:26:00,SystemResetWarning,0834.1,5.00,000.00,018.6,018.4,000.0,027.0,020.2,12.4,0000.0,0004.21,0003.32,0003.14
2024-02-17 02:27:00,SystemResetWarning,0834.1,5.01,000.00,018.6,018.2,000.0,027.0,020.1,12.5,0000.0,0004.25,0003.31,0003.13
2024-02-17 02:28:00,SystemResetWarning,0834.2,5.00,000.00,018.5,018.1,000.0,027.0,020.0,12.5,0000.0,0004.69,0003.30,0003.10
2024-02-17 02:29:00,SystemResetWarning,0834.2,4.99,000.00,018.5,017.9,000.0,027.0,020.0,12.5,0000.0,0004.75,0003.28,0003.08
2024-02-17 02:30:00,SystemResetWarning,0834.2,4.99,000.00,018.4,017.8,000.0,027.0,020.0,12.6,0000.0,0004.56,0003.24,0003.06
2024-02-17 02:31:00,SystemResetWarning,0834.2,4.99,000.00,018.4,017.7,000.0,027.0,020.0,12.6,0000.0,0004.51,0003.22,0003.04
2024-02-17 02:32:00,SystemResetWarning,0834.2,5.00,000.00,018.4,017.6,000.0,027.1,020.0,12.6,0000.0,0004.49,0003.21,0003.02
2024-02-17 02:33:00,SystemResetWarning,0834.2,5.00,000.00,018.4,017.6,000.0,027.1,020.0,12.6,0000.0,0004.48,0003.21,0003.01
2024-02-17 02:34:00,SystemResetWarning,0834.1,5.01,000.00,018.4,017.5,000.0,027.1,020.0,12.6,0000.0,0004.49,0003.21,0003.01
2024-02-17 02:35:00,SystemResetWarning,0834.1,5.01,000.00,018.4,017.7,000.0,027.1,020.2,12.6,0000.0,0004.56,0003.22,0003.01
2024-02-17 02:36:00,SystemResetWarning,0834.2,4.99,000.00,018.5,018.5,000.0,027.2,020.6,12.5,0000.0,0004.67,0003.23,0003.00
2024-02-17 02:37:00,SystemResetWarning,0834.2,5.00,000.00,018.7,019.1,000.0,027.2,020.9,12.4,0000.0,0004.64,0003.23,0003.00
2024-02-17 02:38:00,SystemResetWarning,0834.2,5.00,000.00,018.8,018.9,000.0,027.1,020.8,12.3,0000.0,0004.58,0003.21,0002.99
2024-02-17 02:39:00,SystemResetWarning,0834.1,4.99,000.00,018.7,018.7,000.0,027.1,020.5,12.4,0000.0,0004.15,0003.21,0002.99
2024-02-17 02:40:00,SystemResetWarning,0834.1,5.01,000.00,018.7,018.5,000.0,027.0,020.3,12.4,0000.0,0004.01,0003.21,0002.99
2024-02-17 02:41:00,SystemResetWarning,0834.1,5.01,000.00,018.6,018.3,000.0,027.0,020.2,12.5,0000.0,0004.02,0003.21,0002.98
2024-02-17 02:42:00,SystemResetWarning,0834.1,5.00,000.00,018.5,018.2,000.0,027.0,020.1,12.5,0000.0,0003.98,0003.19,0002.96
2024-02-17 02:43:00,SystemResetWarning,0834.1,5.00,000.00,018.5,018.0,000.0,027.0,020.0,12.5,0000.0,0003.92,0003.18,0002.94
2024-02-17 02:44:00,SystemResetWarning,0834.2,4.99,000.00,018.5,017.9,000.0,027.0,020.0,12.5,0000.0,0003.93,0003.16,0002.91
2024-02-17 02:45:00,SystemResetWarning,0834.2,5.00,000.00,018.4,017.8,000.0,027.0,020.0,12.6,0000.0,0003.82,0003.13,0002.87
2024-02-17 02:46:00,SystemResetWarning,0834.2,5.01,000.00,018.4,017.7,000.0,027.1,020.0,12.6,0000.0,0003.67,0003.09,0002.84
2024-02-17 02:47:00,SystemResetWarning,0834.2,5.01,000.00,018.4,017.6,000.0,027.1,020.0,12.6,0000.0,0003.58,0003.01,0002.81
2024-02-17 02:48:00,SystemResetWarning,0834.2,4.99,000.00,018.4,017.6,000.0,027.0,020.0,12.6,0000.0,0003.58,0003.00,0002.79
2024-02-17 02:49:00,SystemResetWarning,0834.3,5.00,000.00,018.3,017.5,000.0,027.1,020.0,12.6,0000.0,0003.61,0003.00,0002.78
2024-02-17 02:50:00,SystemResetWarning,0834.4,5.00,000.00,018.4,017.7,000.0,027.1,020.2,12.6,0000.0,0003.56,0002.97,0002.75
2024-02-17 02:51:00,SystemResetWarning,0834.3,5.01,000.00,018.5,018.5,000.0,027.2,020.6,12.6,0000.0,0003.51,0002.94,0002.74
2024-02-17 02:52:00,SystemResetWarning,0834.4,5.01,000.00,018.7,019.1,000.0,027.2,020.9,12.4,0000.0,0003.44,0002.92,0002.73
2024-02-17 02:53:00,SystemResetWarning,0834.4,4.99,000.00,018.7,018.9,000.0,027.1,020.7,12.4,0000.0,0003.46,0002.93,0002.73
2024-02-17 02:54:00,SystemResetWarning,0834.4,4.99,000.00,018.7,018.7,000.0,027.1,020.5,12.4,0000.0,0003.46,0002.92,0002.73
2024-02-17 02:55:00,SystemResetWarning,0834.4,5.01,000.00,018.6,018.5,000.0,027.0,020.3,12.4,0000.0,0003.37,0002.89,0002.72
2024-02-17 02:56:00,SystemResetWarning,0834.4,5.00,000.00,018.6,018.3,000.0,027.0,020.2,12.4,0000.0,0003.31,0002.87,0002.72
2024-02-17 02:57:00,SystemResetWarning,0834.5,5.00,000.00,018.5,018.2,000.0,026.9,020.1,12.5,0000.0,0003.38,0002.90,0002.72
2024-02-17 02:58:00,SystemResetWarning,0834.9,4.99,000.00,018.4,018.0,000.0,027.0,020.0,12.5,0000.0,0003.34,0002.92,0002.73
2024-02-17 02:59:00,SystemResetWarning,0834.8,5.00,000.00,018.4,017.9,000.0,027.0,020.0,12.5,0000.0,0003.28,0002.90,0002.72
